Total_Precipitation_Accumulation
0.01 0.02 0.08 0.12 0.12 0.12 0.19 0.28 0.31 0.29 0.33 0.42 0.42 0.37 0.34 0.20 0.15 0.14 0.15 0.17 0.24 0.34 0.34 0.30 0.27 0.23 0.18 0.17 0.21 0.25 0.33 0.41 0.45 0.46 0.52 0.54 0.50 0.48 0.51 0.53 0.50 0.69 0.41
0.00 0.01 0.07 0.12 0.11 0.10 0.14 0.21 0.28 0.28 0.31 0.37 0.39 0.39 0.27 0.16 0.13 0.13 0.14 0.15 0.19 0.24 0.26 0.29 0.31 0.26 0.21 0.24 0.28 0.31 0.33 0.39 0.46 0.46 0.53 0.51 0.47 0.49 0.43 0.37 0.40 0.54 0.37
0.01 0.02 0.07 0.14 0.12 0.09 0.11 0.20 0.28 0.32 0.36 0.41 0.44 0.43 0.21 0.11 0.10 0.12 0.14 0.18 0.20 0.16 0.17 0.24 0.31 0.29 0.25 0.28 0.34 0.35 0.36 0.38 0.42 0.44 0.66 0.90 0.56 0.50 0.52 0.51 0.45 0.39 0.38
0.01 0.06 0.15 0.19 0.16 0.13 0.16 0.26 0.34 0.40 0.44 0.53 0.52 0.36 0.13 0.09 0.12 0.14 0.18 0.22 0.18 0.11 0.12 0.16 0.23 0.24 0.22 0.27 0.32 0.31 0.36 0.39 0.42 0.44 0.71 0.98 0.81 0.71 0.68 0.65 0.56 0.38 0.39
0.02 0.11 0.26 0.25 0.22 0.20 0.24 0.34 0.44 0.49 0.48 0.54 0.50 0.27 0.13 0.10 0.12 0.18 0.24 0.20 0.12 0.09 0.08 0.10 0.15 0.16 0.17 0.18 0.24 0.28 0.33 0.40 0.50 0.53 0.73 0.93 0.97 0.76 0.69 0.78 0.75 0.54 0.49
0.02 0.08 0.19 0.24 0.23 0.23 0.30 0.40 0.45 0.40 0.39 0.48 0.41 0.26 0.15 0.15 0.16 0.19 0.17 0.10 0.07 0.06 0.05 0.06 0.09 0.11 0.12 0.13 0.18 0.25 0.34 0.42 0.48 0.59 0.74 0.94 0.92 0.67 0.64 0.77 0.81 0.69 0.57
0.02 0.04 0.10 0.19 0.19 0.20 0.29 0.39 0.43 0.36 0.41 0.45 0.42 0.34 0.18 0.18 0.19 0.20 0.12 0.07 0.04 0.04 0.05 0.04 0.05 0.05 0.07 0.10 0.14 0.20 0.29 0.28 0.39 0.56 0.70 0.93 0.71 0.49 0.50 0.69 0.90 0.88 0.69
0.02 0.03 0.07 0.17 0.17 0.19 0.25 0.32 0.37 0.37 0.46 0.45 0.36 0.30 0.26 0.19 0.18 0.14 0.08 0.05 0.03 0.04 0.06 0.03 0.02 0.04 0.05 0.11 0.14 0.17 0.21 0.18 0.23 0.35 0.53 0.75 0.63 0.58 0.46 0.52 0.70 0.83 0.79
0.04 0.04 0.07 0.12 0.15 0.19 0.26 0.29 0.35 0.40 0.49 0.48 0.32 0.27 0.31 0.20 0.13 0.08 0.04 0.02 0.02 0.03 0.04 0.02 0.02 0.04 0.07 0.11 0.14 0.14 0.15 0.16 0.20 0.25 0.35 0.54 0.52 0.55 0.44 0.45 0.56 0.66 0.74
0.10 0.10 0.09 0.12 0.16 0.22 0.30 0.33 0.33 0.34 0.42 0.41 0.29 0.28 0.29 0.18 0.10 0.05 0.02 0.01 0.01 0.03 0.05 0.02 0.02 0.05 0.07 0.10 0.11 0.10 0.10 0.12 0.18 0.20 0.32 0.34 0.38 0.39 0.32 0.33 0.39 0.45 0.50
0.18 0.21 0.17 0.14 0.15 0.20 0.31 0.35 0.42 0.44 0.48 0.42 0.34 0.30 0.22 0.17 0.15 0.10 0.04 0.02 0.02 0.05 0.06 0.03 0.04 0.05 0.04 0.06 0.06 0.05 0.04 0.10 0.13 0.16 0.24 0.27 0.31 0.28 0.24 0.25 0.27 0.29 0.30
0.28 0.30 0.29 0.26 0.22 0.18 0.22 0.40 0.59 0.53 0.48 0.40 0.45 0.38 0.31 0.27 0.28 0.15 0.10 0.09 0.04 0.05 0.06 0.04 0.04 0.03 0.01 0.01 0.01 0.01 0.03 0.05 0.08 0.10 0.14 0.23 0.25 0.23 0.19 0.19 0.21 0.21 0.21
0.38 0.37 0.30 0.29 0.24 0.23 0.30 0.40 0.55 0.62 0.63 0.63 0.49 0.49 0.43 0.31 0.18 0.07 0.08 0.10 0.06 0.06 0.05 0.04 0.03 0.02 0.02 0.01 0.00 0.01 0.02 0.04 0.06 0.09 0.14 0.26 0.28 0.23 0.19 0.16 0.16 0.17 0.17
0.42 0.45 0.39 0.37 0.35 0.32 0.28 0.32 0.42 0.45 0.45 0.45 0.40 0.32 0.35 0.31 0.20 0.11 0.12 0.14 0.11 0.05 0.04 0.05 0.05 0.04 0.04 0.02 0.01 0.03 0.03 0.02 0.06 0.12 0.15 0.33 0.42 0.34 0.27 0.19 0.17 0.17 0.17
0.42 0.46 0.48 0.50 0.49 0.52 0.47 0.40 0.37 0.39 0.40 0.44 0.48 0.35 0.27 0.23 0.22 0.20 0.13 0.17 0.13 0.05 0.06 0.08 0.04 0.03 0.05 0.02 0.03 0.05 0.03 0.03 0.06 0.11 0.16 0.33 0.56 0.66 0.53 0.37 0.28 0.23 0.22
0.43 0.55 0.59 0.56 0.58 0.55 0.49 0.50 0.50 0.47 0.49 0.50 0.49 0.34 0.26 0.24 0.22 0.23 0.14 0.13 0.08 0.08 0.10 0.05 0.04 0.05 0.06 0.01 0.01 0.02 0.02 0.02 0.04 0.10 0.20 0.31 0.50 0.77 0.87 0.69 0.54 0.43 0.33
0.42 0.55 0.67 0.65 0.67 0.62 0.56 0.57 0.59 0.58 0.53 0.53 0.55 0.42 0.34 0.31 0.27 0.32 0.25 0.17 0.12 0.12 0.10 0.09 0.11 0.07 0.07 0.02 0.01 0.01 0.02 0.04 0.04 0.04 0.09 0.23 0.31 0.40 0.64 0.78 0.78 0.68 0.49
0.39 0.50 0.62 0.63 0.68 0.70 0.69 0.68 0.65 0.60 0.59 0.62 0.64 0.59 0.49 0.41 0.39 0.49 0.45 0.32 0.27 0.25 0.18 0.14 0.09 0.07 0.08 0.06 0.05 0.03 0.02 0.02 0.04 0.03 0.03 0.05 0.07 0.10 0.16 0.25 0.31 0.43 0.49
0.40 0.46 0.51 0.57 0.76 0.79 0.74 0.80 0.80 0.76 0.80 0.82 0.82 0.78 0.69 0.62 0.63 0.74 0.74 0.57 0.42 0.43 0.35 0.23 0.16 0.16 0.12 0.13 0.09 0.08 0.03 0.02 0.02 0.02 0.02 0.02 0.02 0.03 0.06 0.06 0.08 0.13 0.21
0.34 0.39 0.45 0.54 0.66 0.77 0.91 0.99 1.07 1.08 1.06 1.15 1.20 1.17 1.00 0.92 0.93 1.02 1.01 0.89 0.74 0.69 0.63 0.44 0.39 0.34 0.29 0.28 0.18 0.13 0.08 0.05 0.02 0.02 0.02 0.02 0.02 0.01 0.02 0.01 0.03 0.04 0.05
0.25 0.30 0.37 0.53 0.68 0.83 0.95 1.08 1.34 1.50 1.59 1.55 1.55 1.62 1.50 1.29 1.33 1.37 1.24 1.35 1.30 1.13 1.04 0.85 0.82 0.76 0.55 0.35 0.51 0.52 0.26 0.11 0.06 0.05 0.04 0.02 0.02 0.02 0.01 0.01 0.02 0.03 0.02
0.15 0.22 0.29 0.43 0.66 0.88 1.10 1.29 1.48 1.78 1.92 1.91 1.98 1.91 1.86 1.73 1.70 1.58 1.55 1.68 1.66 1.65 1.64 1.35 1.29 1.22 0.88 0.56 0.82 1.04 0.68 0.42 0.19 0.09 0.07 0.05 0.04 0.04 0.03 0.02 0.01 0.01 0.01
0.09 0.14 0.21 0.33 0.55 0.85 1.16 1.40 1.58 1.80 2.05 2.13 2.02 1.97 2.02 2.08 2.09 1.95 1.88 1.92 1.86 1.82 1.92 1.86 1.69 1.60 1.40 1.02 0.89 1.05 0.95 0.81 0.57 0.18 0.10 0.10 0.10 0.10 0.08 0.06 0.04 0.02 0.01
0.10 0.13 0.17 0.31 0.46 0.69 0.96 1.27 1.49 1.74 2.03 2.10 2.05 2.02 2.05 2.15 2.22 2.16 2.10 2.11 2.04 1.90 1.89 1.92 1.84 1.85 1.88 1.55 1.24 1.01 0.84 0.83 0.80 0.51 0.24 0.15 0.19 0.20 0.17 0.11 0.06 0.04 0.04
0.14 0.18 0.24 0.37 0.50 0.71 0.95 1.26 1.53 1.71 1.86 2.02 2.03 1.95 1.86 1.88 1.90 1.89 1.99 2.09 2.04 1.97 1.93 2.01 2.03 2.06 1.93 1.77 1.57 1.43 1.29 1.10 0.80 0.75 0.63 0.38 0.26 0.24 0.23 0.19 0.15 0.10 0.07
0.24 0.29 0.37 0.48 0.68 0.83 0.94 1.08 1.20 1.39 1.65 1.76 1.85 1.88 1.86 1.80 1.68 1.64 1.72 1.82 1.88 1.87 1.84 1.81 1.86 1.90 1.91 1.91 1.76 1.56 1.47 1.36 1.24 1.11 0.83 0.62 0.48 0.29 0.23 0.20 0.19 0.17 0.15